Regional Weather Roundup
Issued by NWS

Home | Current Version | Previous Version | Text Only | Print | Product List | Glossary Off
Versions: 1 2 3 4 5 6 7 8 9 10 11 12 13 14 15 16 17 18 19 20 21 22 23 24 25 26 27 28 29 30 31 32 33 34 35 36 37 38 39 40 41 42 43 44 45 46 47 48 49 50

000
ASUS43 KLMK 230510
RWRKY
KENTUCKY REGIONAL WEATHER ROUNDUP
NATIONAL WEATHER SERVICE LOUISVILLE KY
1200 AM EST THU FEB 23 2017

NOTE "FAIR" INDICATES FEW OR NO CLOUDS BELOW 12,000 FEET
WITH NO SIGNIFICANT WEATHER AND/OR OBSTRUCTIONS TO VISIBILITY.

KYZ001>023-026-027-061>063-070>075-230600-
WESTERN AND SOUTH CENTRAL KENTUCKY

CITY           SKY/WX    TMP DP  RH WIND       PRES   REMARKS
PADUCAH        PTCLDY    61  54  77 S6        29.78F
HENDERSON      CLEAR     57  52  82 S7        29.77R
OWENSBORO      CLEAR     60  55  83 S10       29.79S
HOPKINSVILLE   PTCLDY    59  56  88 S6        29.82S
BOWLING GREEN  CLEAR     57  54  89 S6        29.84S
GLASGOW        CLEAR     58  55  89 CALM      29.84F
$$

KYZ024-025-028>034-038-045-046-053-230600-
NORTH CENTRAL KENTUCKY

CITY           SKY/WX    TMP DP  RH WIND       PRES   REMARKS
LOUISVILLE/SDF MOCLDY    66  55  67 S10       29.80S
LOUISVILLE/LOU CLOUDY    65  56  72 S7        29.81S
FORT KNOX      CLOUDY    61  57  85 S7        29.80S
$$

KYZ035>037-039>044-047>052-055>060-089>105-230600-
NORTHEAST KENTUCKY

CITY           SKY/WX    TMP DP  RH WIND       PRES   REMARKS
LEXINGTON      PTCLDY    59  54  83 S8        29.84F
COVINGTON      PTCLDY    59  55  87 S7        29.79F
FRANKFORT      CLOUDY    63  54  72 S8        29.81F
$$

KYZ054-064>069-076>088-106>120-230600-
SOUTHEAST KENTUCKY

CITY           SKY/WX    TMP DP  RH WIND       PRES   REMARKS
JACKSON        CLEAR     54  51  90 S5        29.88F
LONDON         CLEAR     53  50  89 S3        29.88F
SOMERSET       PTCLDY    54  54 100 CALM      29.88S
MIDDLESBORO    FOG       47  47 100 CALM      29.92S VSB<1/4
MONTICELLO     PTCLDY    56  54  93 NE6       29.89S
$$





USA.gov is the U.S. government's official web portal to all federal, state and local government web resources and services.